Accueil
METAR-TAF:

METAR-TAF

Aéroports :

Elsenborn

Butgenbach, Belgique

latitude: 50-28N, longitude: 006-11E, altitude: 564 m

Observation

Le bulletin a été fait il y a 24 minutes, à 19:25 UTC
Vent 1 kt de direction variable
Température 7°C
Humidité 93%
Pression 1026 hPa
Visibilité: 3000 m
brume

METAR: EBLB 191925Z AUTO VRB01KT 3000 BR FEW025/// 07/06 Q1026 YLO

Heure: 21:49 (19:49 UTC)


TAF: absent

Observations et prévisions météorologiques de plus de 4000 aéroports (messages METAR et TAF).

Les stations disponibles sont représentées par des disques jaunes et rouges sur la carte.

Passer la souris dessus pour voir le nom de la station.

Cliquer dessus pour voir les observations et prévisions météorologiques.

Pour changer de carte: cliquez sur les boutons verts avec une croix noire pour zoomer, sur le bouton vert avec un tiret pour effectuer un zoom arrière, ou sur les flèches vertes pour les cartes adjacentes.


METAR-TAF: